• In Sweden
  • List of Countries
  • For 7 days
  • Water Temperature
  • Satellite Maps
  • Weather Map
  • Weather Widgets
  • user-avatar
    Login

    Hourly Weather Exeter

    Today, 18 January, Thursday

    Time Temperature Precipitation Wind Pressure Humidity
    00:00 +9°C° 0 mm 15 mps 742 mmHg 88%
    01:00 +9°C° 0.2 mm 15 mps 742 mmHg 85%
    02:00 +8°C° 0.2 mm 15 mps 742 mmHg 83%
    03:00 +8°C° 0.2 mm 15 mps 742 mmHg 81%
    04:00 +6°C° 0 mm 14 mps 743 mmHg 79%
    05:00 +5°C° 0 mm 12 mps 743 mmHg 78%
    06:00 +5°C° 0 mm 10 mps 744 mmHg 77%
    07:00 +5°C° 0 mm 10 mps 745 mmHg 78%
    08:00 +5°C° 0 mm 9 mps 745 mmHg 78%
    09:00 +4°C° 0 mm 8 mps 745 mmHg 78%
    10:00 +5°C° 0.2 mm 9 mps 746 mmHg 78%
    11:00 +5°C° 0.2 mm 9 mps 746 mmHg 78%
    12:00 +6°C° 0 mm 8 mps 746 mmHg 78%
    13:00 +6°C° 0.2 mm 9 mps 746 mmHg 77%
    14:00 +5°C° 0.2 mm 9 mps 746 mmHg 76%
    15:00 +5°C° 0.2 mm 10 mps 746 mmHg 75%
    16:00 +3°C° 0.1 mm 10 mps 747 mmHg 75%
    17:00 +3°C° 0.1 mm 9 mps 747 mmHg 75%
    18:00 +2°C° 0.1 mm 9 mps 747 mmHg 75%
    19:00 +2°C° 0.1 mm 9 mps 748 mmHg 75%
    20:00 +1°C° 0.1 mm 9 mps 748 mmHg 75%
    21:00 +1°C° 0.1 mm 8 mps 749 mmHg 75%
    22:00 +1°C° 0.1 mm 8 mps 749 mmHg 75%
    23:00 +1°C° 0.1 mm 8 mps 749 mmHg 76%

    Tomorrow, 19 January, Friday

    Time Temperature Precipitation Wind Pressure Humidity
    00:00 +2°C° 0.1 mm 7 mps 749 mmHg 77%
    01:00 +2°C° 0.1 mm 7 mps 750 mmHg 77%
    02:00 0°C° 0.1 mm 7 mps 750 mmHg 78%
    03:00 +1°C° 0.1 mm 6 mps 750 mmHg 79%
    04:00 +1°C° 0.1 mm 6 mps 750 mmHg 80%
    05:00 +1°C° 0.1 mm 6 mps 750 mmHg 80%
    06:00 +1°C° 0.1 mm 6 mps 750 mmHg 80%
    07:00 +1°C° 0.1 mm 6 mps 750 mmHg 80%
    08:00 0°C° 0.1 mm 7 mps 751 mmHg 80%
    09:00 0°C° 0.1 mm 7 mps 751 mmHg 79%
    10:00 +2°C° 0.2 mm 7 mps 751 mmHg 76%
    11:00 +2°C° 0.2 mm 8 mps 751 mmHg 73%
    12:00 +3°C° 0.2 mm 9 mps 751 mmHg 70%
    13:00 +3°C° 0.2 mm 9 mps 751 mmHg 71%
    14:00 +2°C° 0.2 mm 9 mps 751 mmHg 72%
    15:00 +2°C° 0.2 mm 9 mps 751 mmHg 72%
    16:00 +2°C° 0.2 mm 8 mps 751 mmHg 74%
    17:00 +2°C° 0.2 mm 8 mps 751 mmHg 76%
    18:00 +1°C° 0.2 mm 8 mps 751 mmHg 78%
    19:00 +2°C° 0.1 mm 7 mps 751 mmHg 79%
    20:00 +2°C° 0.1 mm 7 mps 751 mmHg 80%
    21:00 +2°C° 0.1 mm 6 mps 751 mmHg 81%
    22:00 +3°C° 0.2 mm 6 mps 751 mmHg 84%
    23:00 +3°C° 0.2 mm 5 mps 750 mmHg 86%

    Day after tomorrow, 20 January, Saturday

    Time Temperature Precipitation Wind Pressure Humidity
    00:00 +3°C° 0.2 mm 5 mps 750 mmHg 89%
    01:00 +4°C° 0.9 mm 4 mps 748 mmHg 91%
    02:00 +4°C° 0.9 mm 4 mps 747 mmHg 93%
    03:00 +4°C° 0.9 mm 4 mps 746 mmHg 95%
    04:00 +4°C° 0.3 mm 3 mps 745 mmHg 95%
    05:00 +5°C° 0.3 mm 3 mps 744 mmHg 96%
    06:00 +6°C° 0.3 mm 2 mps 743 mmHg 96%
    07:00 +6°C° 0 mm 2 mps 743 mmHg 96%
    08:00 +6°C° 0 mm 2 mps 744 mmHg 96%
    09:00 +6°C° 0 mm 2 mps 744 mmHg 96%
    10:00 +6°C° 0 mm 2 mps 745 mmHg 94%
    11:00 +7°C° 0 mm 3 mps 746 mmHg 93%
    12:00 +8°C° 0 mm 3 mps 746 mmHg 91%
    13:00 +8°C° 0.1 mm 3 mps 747 mmHg 92%
    14:00 +8°C° 0.1 mm 2 mps 747 mmHg 92%
    15:00 +8°C° 0.1 mm 2 mps 748 mmHg 93%
    16:00 +7°C° 0.1 mm 2 mps 748 mmHg 93%
    17:00 +7°C° 0.1 mm 2 mps 749 mmHg 94%
    18:00 +6°C° 0.1 mm 2 mps 750 mmHg 94%
    19:00 +6°C° 0.1 mm 2 mps 750 mmHg 94%
    20:00 +6°C° 0.1 mm 2 mps 751 mmHg 94%
    21:00 +6°C° 0.1 mm 2 mps 751 mmHg 94%
    22:00 +7°C° 0.8 mm 3 mps 751 mmHg 95%
    23:00 +6°C° 0.8 mm 4 mps 751 mmHg 95%

    21 January, Sunday

    Time Temperature Precipitation Wind Pressure Humidity
    00:00 +7°C° 0.8 mm 5 mps 751 mmHg 96%
    01:00 +8°C° 1.9 mm 6 mps 751 mmHg 96%
    02:00 +8°C° 1.9 mm 7 mps 750 mmHg 95%
    03:00 +9°C° 1.9 mm 8 mps 750 mmHg 95%
    04:00 +10°C° 0.2 mm 8 mps 750 mmHg 94%
    05:00 +10°C° 0.2 mm 9 mps 750 mmHg 93%
    06:00 +11°C° 0.2 mm 9 mps 750 mmHg 92%
    07:00 +11°C° 0.1 mm 10 mps 750 mmHg 92%
    08:00 +11°C° 0.1 mm 10 mps 750 mmHg 91%
    09:00 +11°C° 0.1 mm 11 mps 750 mmHg 91%
    10:00 +11°C° 0.1 mm 11 mps 750 mmHg 90%
    11:00 +11°C° 0.1 mm 11 mps 750 mmHg 90%
    12:00 +11°C° 0.1 mm 11 mps 751 mmHg 89%
    13:00 +11°C° 0.1 mm 10 mps 751 mmHg 90%
    14:00 +11°C° 0.1 mm 10 mps 751 mmHg 90%
    15:00 +11°C° 0.1 mm 10 mps 751 mmHg 91%
    16:00 +11°C° 0.3 mm 10 mps 751 mmHg 91%
    17:00 +11°C° 0.3 mm 9 mps 751 mmHg 92%
    18:00 +11°C° 0.3 mm 9 mps 751 mmHg 93%
    19:00 +11°C° 0.4 mm 9 mps 751 mmHg 93%
    20:00 +11°C° 0.4 mm 9 mps 751 mmHg 93%
    21:00 +11°C° 0.4 mm 9 mps 752 mmHg 94%
    22:00 +11°C° 0.3 mm 9 mps 752 mmHg 93%
    23:00 +11°C° 0.3 mm 9 mps 752 mmHg 93%

    22 January, Monday

    Time Temperature Precipitation Wind Pressure Humidity
    00:00 +11°C° 0.3 mm 9 mps 752 mmHg 93%
    01:00 +11°C° 0.1 mm 9 mps 751 mmHg 93%
    02:00 +11°C° 0.1 mm 9 mps 751 mmHg 93%
    03:00 +11°C° 0.1 mm 9 mps 751 mmHg 92%
    04:00 +11°C° 0 mm 9 mps 751 mmHg 92%
    05:00 +11°C° 0 mm 9 mps 751 mmHg 91%
    06:00 +11°C° 0 mm 10 mps 751 mmHg 91%
    07:00 +11°C° 0.5 mm 10 mps 750 mmHg 91%
    08:00 +11°C° 0.5 mm 11 mps 750 mmHg 91%
    09:00 +10°C° 0.5 mm 12 mps 750 mmHg 91%
    10:00 +10°C° 0.1 mm 12 mps 750 mmHg 88%
    11:00 +11°C° 0.1 mm 11 mps 750 mmHg 86%
    12:00 +11°C° 0.1 mm 11 mps 750 mmHg 84%
    13:00 +11°C° 0 mm 10 mps 751 mmHg 84%
    14:00 +11°C° 0 mm 9 mps 751 mmHg 85%
    15:00 +10°C° 0 mm 8 mps 751 mmHg 86%
    16:00 +10°C° 0.1 mm 8 mps 751 mmHg 87%
    17:00 +10°C° 0.1 mm 8 mps 752 mmHg 89%
    18:00 +10°C° 0.1 mm 8 mps 752 mmHg 90%
    19:00 +9°C° 0 mm 8 mps 752 mmHg 90%
    20:00 +9°C° 0 mm 8 mps 753 mmHg 90%
    21:00 +9°C° 0 mm 8 mps 753 mmHg 90%
    22:00 +8°C° 0 mm 9 mps 753 mmHg 90%
    23:00 +8°C° 0 mm 9 mps 753 mmHg 90%

    23 January, Tuesday

    Time Temperature Precipitation Wind Pressure Humidity
    00:00 +10°C° 0 mm 9 mps 754 mmHg 89%
    01:00 +10°C° 0.1 mm 9 mps 754 mmHg 89%
    02:00 +10°C° 0.1 mm 9 mps 754 mmHg 89%
    03:00 +10°C° 0.1 mm 8 mps 755 mmHg 89%
    04:00 +10°C° 0.1 mm 8 mps 755 mmHg 91%
    05:00 +9°C° 0.1 mm 7 mps 756 mmHg 92%
    06:00 +9°C° 0.1 mm 6 mps 756 mmHg 93%
    07:00 +9°C° 0 mm 6 mps 756 mmHg 94%
    08:00 +9°C° 0 mm 6 mps 757 mmHg 94%
    09:00 +9°C° 0 mm 6 mps 757 mmHg 94%
    10:00 +10°C° 0 mm 6 mps 757 mmHg 93%
    11:00 +10°C° 0 mm 6 mps 757 mmHg 92%
    12:00 +11°C° 0 mm 6 mps 758 mmHg 91%
    13:00 +11°C° 0 mm 7 mps 757 mmHg 90%
    14:00 +11°C° 0 mm 8 mps 757 mmHg 89%
    15:00 +10°C° 0 mm 8 mps 757 mmHg 89%
    16:00 +11°C° 0 mm 8 mps 756 mmHg 90%
    17:00 +11°C° 0 mm 8 mps 756 mmHg 92%
    18:00 +11°C° 0 mm 8 mps 756 mmHg 94%
    19:00 +11°C° 0.4 mm 8 mps 756 mmHg 94%
    20:00 +11°C° 0.4 mm 9 mps 756 mmHg 94%
    21:00 +11°C° 0.4 mm 9 mps 756 mmHg 93%
    22:00 +11°C° 0.2 mm 10 mps 756 mmHg 94%
    23:00 +11°C° 0.2 mm 10 mps 755 mmHg 94%
    Show more